Starlink 11307

operational
NORAD ID: 61210 Int'l Des: 2024-171 Owner: SPXS Country: US Constellation: starlink
LEOCIRCULAR

About Starlink 11307

Description loading...

Live Position

Loading 3D Globe...

Upcoming Passes

Altitude History

Altitude vs Time

uPlot chart will show altitude changes over time

Two-Line Element Set

1 61210U 24171L 26035.07104600 -.00000476 00000-0 93182-6 0 9996
2 61210 53.1592 342.3462 0001320 92.2293 267.8876 15.69715958 79112
Epoch: Feb 4, 2026 • Age: 9 hours

Current Status

Altitude 375.0 km
Velocity 7.68 km/s
Sub-Earth Point -43.15°S, 2.22°E
Launch Date Sep 20, 2024
Age 1.3 years
Type internet

Technical Details

Classification Payload
Mass 960.00 kg
Dry Mass 910.00 kg
Total Mass 960.00 kg
Length 0.30 m
Diameter 4.10 m
Span 29.00 m
Shape Box + pan
Manufacturer SPXS
Bus Type Starlink V2MD
Phase Status In Orbit
Owner/State SPXS/US

Large Constellations

Loading constellations...